Regional Weather Roundup
Issued by NWS

Home | Current Version | Previous Version | Text Only | Print | Product List | Glossary Off
Versions: 1 2 3 4 5 6 7 8 9 10 11 12 13 14 15 16 17 18 19 20 21 22 23 24 25 26 27 28 29 30 31 32 33 34 35 36 37 38 39 40 41 42 43 44 45 46 47 48 49

000
ASUS45 KSLC 030010
RWRUT

UTAH REGIONAL WEATHER ROUNDUP
NATIONAL WEATHER SERVICE SALT LAKE CITY UT
600 PM MDT TUE SEP 02 2014

UTZ001>011-023>025-030100-

NORTHERN UTAH

CITY           SKY/WX    TMP DP  RH WIND       PRES   REMARKS
HILL AFB       SUNNY     84  40  21 N5        29.91F
LOGAN          SUNNY     82  42  24 S6        29.89F
OGDEN          SUNNY     85  37  18 VRB3      29.88F
PROVO AIRPORT  MOSUNNY   90  41  18 CALM      29.89F
SALT LAKE CITY MOSUNNY   87  41  19 N12       29.85F
VERNAL         SUNNY     83  43  24 W3        29.95F
WENDOVER       SUNNY     84  37  18 CALM      29.85
HEBER CITY     SUNNY     82  36  18 SW13      29.97F
WEST JORDAN    SUNNY     88  52  29 N8        29.89F

$$

UTZ012>022-026-027-030100-

SOUTHERN UTAH

CITY           SKY/WX    TMP DP  RH WIND       PRES   REMARKS
BRYCE CANYON   SUNNY     78  36  21 SW15      30.18F
CEDAR CITY     SUNNY     87  29  12 SW16G23   29.99F
MILFORD        SUNNY     91  31  11 SW20G26   29.92F
MOAB/CYNLANDS  SUNNY     93  32  11 SW10G17   29.87F
PRICE          SUNNY     87  31  13 SE7       29.99F
ST GEORGE      CLEAR     99  39  12 W12       29.80F HX  94
KANAB            N/A     91  32  12 S12G20    29.98F

$$

REGIONAL REPORTS     COLORADO/ARIZONA

CITY           SKY/WX    TMP DP  RH WIND       PRES   REMARKS
CRAIG, CO      SUNNY     81  36  19 W14       30.03F
GRAND JUNCTION SUNNY     88  31  13 NW13      29.93F
RIFLE          SUNNY     86  30  13 W13G21    29.99F
MONTROSE       MOSUNNY   86  37  17 N7        30.02F
CORTEZ         SUNNY     88  29  12 W10       30.05F
PAGE, AZ       SUNNY     96  37  12 NE12      29.89F HX  91
GRAND CANYON   SUNNY     82  28  14 SW9       30.14F
KINGMAN        SUNNY     96  35  11 SW18      29.87F HX  91
FLAGSTAFF      SUNNY     77  36  22 SW10G18   30.19F

$$

REGIONAL REPORTS    NEVADA/IDAHO/WYOMING

CITY           SKY/WX    TMP DP  RH WIND       PRES   REMARKS
LAS VEGAS, NV  SUNNY    105  29   7 S12G22    29.67F HX  98
ELY            SUNNY     87  24  10 S17G23    29.98F
ELKO           SUNNY     89  26  10 W13       29.87F
POCATELLO, ID  SUNNY     81  34  18 W13       29.89F
BURLEY         SUNNY     82  40  22 CALM      29.83F
EVANSTON, WY   SUNNY     76  35  22 W22G32    30.08F
ROCK SPRINGS   SUNNY     79  26  14 W32G39    30.02F

$$



USA.gov is the U.S. government's official web portal to all federal, state and local government web resources and services.